Miscellaneous Local Product
Issued by NWS North Platte, NE

Home | Current Version | Previous Version | Text Only | Print | Product List | Glossary On
Versions: 1 2 3 4 5 6 7 8 9 10 11 12 13 14 15 16 17 18 19 20 21 22 23 24 25 26 27 28 29 30 31 32 33 34 35 36 37 38 39 40 41 42 43 44 45 46 47 48 49 50
000
AXUS43 KLBF 010010
MISLBF


WESTERN AND NORTH CENTRAL NEBRASKA HOURLY WEATHER ROUNDUP
NATIONAL WEATHER SERVICE NORTH PLATTE NE
700 PM CDT SUN AUG 31 2014

***STATIONS NOT REPORTING VARIABLES SUCH AS SKY/WEATHER OR
PRESSURE ARE PROVIDED BY THE NEBRASKA DEPARTMENT OF
ROADS...RAWS...AND APRS NETWORKS...AND ARE NOT UNDER
NATIONAL WEATHER SERVICE QUALITY CONTROL***

...OBSERVATIONS IN AND NEAR THE EASTERN PANHANDLE OF NEBRASKA...

CITY           SKY/WX    TMP DP  RH WIND       PRES   REMARKS
PINE RIDGE     PTSUNNY   59  52  77 N20G28    29.81R
CHADRON        CLOUDY    62  53  72 N5        29.85R
ALLIANCE       TSTM      60  54  80 NW31G41   29.84R
SIDNEY         MOSUNNY   79  37  22 NW22G30   29.85R
WHITECLAY        N/A     59  52  77 W9          N/A
RUSHVILLE        N/A     61  50  67 NW25        N/A
GORDON           N/A     60  53  79 NE12        N/A
LISCO            N/A     79  39  23 W15         N/A
BIG SPRINGS      N/A     71  57  61 S3          N/A
$$

...OBSERVATIONS IN NORTH CENTRAL NEBRASKA...

CITY           SKY/WX    TMP DP  RH WIND       PRES   REMARKS
VALENTINE      MOSUNNY   72  58  61 CALM      29.72S
THEDFORD       CLOUDY    76  57  51 W8        29.72R
AINSWORTH      MOSUNNY   68  61  77 CALM      29.70F
O`NEILL        CLOUDY    72  62  69 NE6       29.70R
ORD            PTSUNNY   72  58  61 W5        29.67F
BROKEN BOW     CLOUDY    71  60  68 W7        29.70F
SPRINGVIEW       N/A     70  61  73 CALM        N/A
ROSE             N/A     73  63  68 S5          N/A
NEWPORT          N/A     73  63  68 W3          N/A
COMSTOCK         N/A     79  62  55 SW6         N/A
CHAMBERS         N/A     73  59  62 CALM        N/A
EWING            N/A     69  63  82 CALM        N/A
$$

...OBSERVATIONS IN SOUTHWEST NEBRASKA AND FAR NORTHEAST COLORADO...

CITY           SKY/WX    TMP DP  RH WIND       PRES   REMARKS
WRAY             N/A     74  52  46 SE7       29.78F
HOLYOKE        FAIR      72  54  53 NE5       29.85S
IMPERIAL       PTSUNNY   75  53  46 CALM      29.80F
OGALLALA       SUNNY     65  56  70 CALM      29.80R
NORTH PLATTE   PTSUNNY   71  57  61 S7        29.75F
MCCOOK         TSTM      71  59  65 NE6       29.78S
LEXINGTON      PTSUNNY   73  62  67 W3        29.73F
PAXTON           N/A     65  59  82 SE5         N/A
SUTHERLAND       N/A     71  58  63 S8          N/A
BRADY            N/A     74  59  59 CALM        N/A
GOTHENBURG       N/A     73  55  52 N3          N/A
CALLAWAY         N/A     65  61  86 SW6         N/A
$$

...SOME WEATHER OBSERVATIONS FROM AROUND THE REGION...

CITY           SKY/WX    TMP DP  RH WIND       PRES   REMARKS
DENVER         PTSUNNY   67  50  54 E12       29.93R
LARAMIE        SUNNY     63  39  41 W20G31    30.03R
CHEYENNE       MOSUNNY   70  37  29 W16G25    29.96S
SCOTTSBLUFF    MOSUNNY   69  49  48 NW25G35   29.84R
RAPID CITY     CLOUDY    59  56  89 W6        29.83R
PIERRE         CLOUDY    69  60  73 NW5       29.68F
WINNER         FAIR      73  58  59 CALM      29.69F
SIOUX FALLS    LGT RAIN  70  61  73 W6        29.69F
OMAHA          CLOUDY    82  73  74 S18       29.57F THUNDER
GRAND ISLAND   MOSUNNY   75  60  59 NE12      29.72F
KANSAS CITY    MOCLDY    87  66  49 S16       29.71F
WICHITA        MOSUNNY   94  62  34 S29G38    29.66F HX  94
HAYS           PTSUNNY   75  63  64 NE6G20    29.70R
LIBERAL        MOSUNNY  100  43  14 SW26G32   29.67S HX  96
GOODLAND       CLOUDY    75  55  49 NE9       29.83S
$$



USA.gov is the U.S. government's official web portal to all federal, state and local government web resources and services.